Time,TemperatureF,DewpointF,PressureIn,WindDirection,WindDirectionDegrees,WindSpeedMPH,WindSpeedGustMPH,Humidity,HourlyPrecipIn,Conditions,Clouds,dailyrainin,SoftwareType,DateUTC
2013-01-13 11:10:00,65.1,62.4,30.10,SSW,210,1.0,2.0,91,0.00,,,0.00,Wunderground v.1.15,2013-01-13 16:10:00,
2013-01-13 11:15:00,65.7,62.7,30.09,SSW,193,1.0,2.0,90,0.00,,,0.00,Wunderground v.1.15,2013-01-13 16:15:00,
2013-01-13 11:20:00,66.2,62.9,30.09,SSW,205,1.0,1.0,89,0.00,,,0.00,Wunderground v.1.15,2013-01-13 16:20:00,
2013-01-13 11:25:00,66.6,62.9,30.09,SSE,158,1.0,1.0,88,0.00,,,0.00,Wunderground v.1.15,2013-01-13 16:25:00,
2013-01-13 11:30:00,66.9,62.9,30.08,South,190,0.0,0.0,87,0.00,,,0.00,Wunderground v.1.15,2013-01-13 16:30:00,
2013-01-13 11:40:00,67.6,63.3,30.08,WNW,299,1.0,1.0,86,0.00,,,0.00,Wunderground v.1.15,2013-01-13 16:40:00,
2013-01-13 11:45:00,68.1,63.4,30.07,WNW,300,1.0,1.0,85,0.00,,,0.00,Wunderground v.1.15,2013-01-13 16:45:00,
2013-01-13 11:50:00,68.6,62.9,30.07,ESE,111,0.0,2.0,82,0.00,,,0.00,Wunderground v.1.15,2013-01-13 16:50:00,
2013-01-13 12:00:00,69.4,63.0,30.07,South,191,1.0,1.0,80,0.00,,,0.00,Wunderground v.1.15,2013-01-13 17:00:00,
2013-01-13 12:10:00,70.4,63.2,30.06,SSE,166,1.0,1.0,78,0.00,,,0.00,Wunderground v.1.15,2013-01-13 17:10:00,
2013-01-13 12:20:00,70.7,62.8,30.06,SSW,194,1.0,1.0,76,0.00,,,0.00,Wunderground v.1.15,2013-01-13 17:20:00,
2013-01-13 12:25:00,70.9,63.0,30.06,SSE,148,1.0,1.0,76,0.00,,,0.00,Wunderground v.1.15,2013-01-13 17:25:00,
2013-01-13 12:30:00,71.2,62.9,30.05,SW,214,1.0,3.0,75,0.00,,,0.00,Wunderground v.1.15,2013-01-13 17:30:00,
2013-01-13 12:40:00,71.8,62.3,30.05,SSW,207,2.0,2.0,72,0.00,,,0.00,Wunderground v.1.15,2013-01-13 17:40:00,
2013-01-13 12:45:00,71.8,62.3,30.05,WNW,288,2.0,2.0,72,0.00,,,0.00,Wunderground v.1.15,2013-01-13 17:45:00,
2013-01-13 12:55:00,72.0,62.5,30.05,SSE,154,1.0,2.0,72,0.00,,,0.00,Wunderground v.1.15,2013-01-13 17:55:00,
2013-01-13 13:00:00,72.2,62.3,30.04,West,276,1.0,8.0,71,0.00,,,0.00,Wunderground v.1.15,2013-01-13 18:00:00,
2013-01-13 13:05:00,72.4,62.1,30.04,SSW,210,2.0,8.0,70,0.00,,,0.00,Wunderground v.1.15,2013-01-13 18:05:00,
2013-01-13 13:15:00,73.2,63.2,30.04,SW,224,1.0,4.0,71,0.00,,,0.00,Wunderground v.1.15,2013-01-13 18:15:00,
2013-01-13 13:20:00,73.2,62.0,30.04,SE,141,1.0,1.0,68,0.00,,,0.00,Wunderground v.1.15,2013-01-13 18:20:00,
2013-01-13 13:25:00,73.2,62.0,30.04,SE,141,2.0,2.0,68,0.00,,,0.00,Wunderground v.1.15,2013-01-13 18:25:00,
2013-01-13 13:35:00,73.3,62.1,30.03,NW,311,1.0,4.0,68,0.00,,,0.00,Wunderground v.1.15,2013-01-13 18:35:00,
2013-01-13 13:40:00,73.4,61.8,30.03,ENE,75,2.0,2.0,67,0.00,,,0.00,Wunderground v.1.15,2013-01-13 18:40:00,
2013-01-13 13:45:00,73.3,61.3,30.03,South,191,2.0,2.0,66,0.00,,,0.00,Wunderground v.1.15,2013-01-13 18:45:00,
2013-01-13 13:55:00,73.5,61.9,30.03,ESE,121,2.0,2.0,67,0.00,,,0.00,Wunderground v.1.15,2013-01-13 18:55:00,
2013-01-13 14:00:00,73.5,61.9,30.03,South,183,1.0,2.0,67,0.00,,,0.00,Wunderground v.1.15,2013-01-13 19:00:00,
2013-01-13 14:10:00,73.5,61.9,30.03,South,188,1.0,1.0,67,0.00,,,0.00,Wunderground v.1.15,2013-01-13 19:10:00,
2013-01-13 14:15:00,73.6,62.0,30.03,SSW,195,1.0,1.0,67,0.00,,,0.00,Wunderground v.1.15,2013-01-13 19:15:00,
2013-01-13 14:25:00,73.6,61.5,30.04,SE,141,1.0,4.0,66,0.00,,,0.00,Wunderground v.1.15,2013-01-13 19:25:00,
2013-01-13 14:30:00,73.3,62.1,30.04,SSE,154,1.0,1.0,68,0.00,,,0.00,Wunderground v.1.15,2013-01-13 19:30:00,
2013-01-13 14:35:00,72.9,61.7,30.04,SSE,150,1.0,1.0,68,0.00,,,0.00,Wunderground v.1.15,2013-01-13 19:35:00,
2013-01-13 14:45:00,73.0,61.8,30.04,South,177,1.0,1.0,68,0.00,,,0.00,Wunderground v.1.15,2013-01-13 19:45:00,
2013-01-13 14:50:00,73.1,61.9,30.04,NW,305,1.0,2.0,68,0.00,,,0.00,Wunderground v.1.15,2013-01-13 19:50:00,
2013-01-13 14:55:00,73.0,61.8,30.04,SSE,154,1.0,2.0,68,0.00,,,0.00,Wunderground v.1.15,2013-01-13 19:55:00,
2013-01-13 15:00:00,73.0,61.8,30.04,SSE,149,1.0,1.0,68,0.00,,,0.00,Wunderground v.1.15,2013-01-13 20:00:00,
2013-01-13 15:10:00,73.1,62.3,30.05,South,191,1.0,1.0,69,0.00,,,0.00,Wunderground v.1.15,2013-01-13 20:10:00,
2013-01-13 15:15:00,72.9,61.7,30.05,ESE,114,1.0,1.0,68,0.00,,,0.00,Wunderground v.1.15,2013-01-13 20:15:00,
2013-01-13 15:25:00,73.2,62.4,30.04,SSW,194,1.0,2.0,69,0.00,,,0.00,Wunderground v.1.15,2013-01-13 20:25:00,
2013-01-13 15:35:00,73.1,61.9,30.04,SE,138,1.0,1.0,68,0.00,,,0.00,Wunderground v.1.15,2013-01-13 20:35:00,
2013-01-13 15:40:00,72.9,62.1,30.04,SE,138,0.0,0.0,69,0.00,,,0.00,Wunderground v.1.15,2013-01-13 20:40:00,
2013-01-13 15:45:00,72.6,62.3,30.05,South,186,1.0,1.0,70,0.00,,,0.00,Wunderground v.1.15,2013-01-13 20:45:00,
2013-01-13 15:50:00,72.4,62.1,30.05,NNW,334,1.0,1.0,70,0.00,,,0.00,Wunderground v.1.15,2013-01-13 20:50:00,
2013-01-13 16:00:00,72.2,62.3,30.05,SSE,165,0.0,0.0,71,0.00,,,0.00,Wunderground v.1.15,2013-01-13 21:00:00,
2013-01-13 16:10:00,71.9,62.0,30.04,East,95,0.0,1.0,71,0.00,,,0.00,Wunderground v.1.15,2013-01-13 21:10:00,
2013-01-13 16:20:00,71.5,62.0,30.05,WNW,302,0.0,0.0,72,0.00,,,0.00,Wunderground v.1.15,2013-01-13 21:20:00,
2013-01-13 16:25:00,71.3,62.2,30.05,WNW,301,0.0,0.0,73,0.00,,,0.00,Wunderground v.1.15,2013-01-13 21:25:00,
2013-01-13 16:35:00,71.1,62.0,30.05,WNW,301,0.0,0.0,73,0.00,,,0.00,Wunderground v.1.15,2013-01-13 21:35:00,
2013-01-13 16:40:00,70.9,62.2,30.05,WNW,301,0.0,0.0,74,0.00,,,0.00,Wunderground v.1.15,2013-01-13 21:40:00,
2013-01-13 16:50:00,70.3,62.0,30.06,WNW,301,0.0,0.0,75,0.00,,,0.00,Wunderground v.1.15,2013-01-13 21:50:00,
2013-01-13 16:55:00,69.9,62.0,30.06,WNW,301,0.0,0.0,76,0.00,,,0.00,Wunderground v.1.15,2013-01-13 21:55:00,
2013-01-13 17:00:00,69.3,61.8,30.06,WNW,300,0.0,0.0,77,0.00,,,0.00,Wunderground v.1.15,2013-01-13 22:00:00,
2013-01-13 17:10:00,68.2,61.8,30.06,WNW,301,0.0,0.0,80,0.00,,,0.00,Wunderground v.1.15,2013-01-13 22:10:00,
2013-01-13 17:15:00,67.6,61.6,30.05,WNW,301,0.0,0.0,81,0.00,,,0.00,Wunderground v.1.15,2013-01-13 22:15:00,
2013-01-13 17:25:00,66.4,61.1,30.05,WNW,300,0.0,0.0,83,0.00,,,0.00,Wunderground v.1.15,2013-01-13 22:25:00,
2013-01-13 17:30:00,65.8,60.8,30.05,WNW,301,0.0,0.0,84,0.00,,,0.00,Wunderground v.1.15,2013-01-13 22:30:00,
2013-01-13 17:40:00,64.9,60.3,30.05,WNW,301,0.0,0.0,85,0.00,,,0.00,Wunderground v.1.15,2013-01-13 22:40:00,
2013-01-13 17:45:00,64.5,60.2,30.05,WNW,301,0.0,0.0,86,0.00,,,0.00,Wunderground v.1.15,2013-01-13 22:45:00,
2013-01-13 17:55:00,63.7,60.1,30.05,WNW,301,0.0,0.0,88,0.00,,,0.00,Wunderground v.1.15,2013-01-13 22:55:00,
2013-01-13 18:00:00,63.3,59.7,30.05,WNW,301,0.0,0.0,88,0.00,,,0.00,Wunderground v.1.15,2013-01-13 23:00:00,
2013-01-13 18:10:00,62.6,59.3,30.05,WNW,301,0.0,0.0,89,0.00,,,0.00,Wunderground v.1.15,2013-01-13 23:10:00,
2013-01-13 18:15:00,62.2,58.9,30.05,WNW,301,0.0,0.0,89,0.00,,,0.00,Wunderground v.1.15,2013-01-13 23:15:00,
2013-01-13 18:20:00,61.9,58.9,30.05,WNW,301,0.0,0.0,90,0.00,,,0.00,Wunderground v.1.15,2013-01-13 23:20:00,
2013-01-13 18:25:00,61.5,58.5,30.05,WNW,301,0.0,0.0,90,0.00,,,0.00,Wunderground v.1.15,2013-01-13 23:25:00,
2013-01-13 18:35:00,60.9,57.9,30.06,WNW,301,0.0,0.0,90,0.00,,,0.00,Wunderground v.1.15,2013-01-13 23:35:00,
2013-01-13 18:40:00,60.6,57.7,30.06,WNW,300,0.0,0.0,90,0.00,,,0.00,Wunderground v.1.15,2013-01-13 23:40:00,
2013-01-13 18:45:00,60.3,57.7,30.06,WNW,301,0.0,0.0,91,0.00,,,0.00,Wunderground v.1.15,2013-01-13 23:45:00,
2013-01-13 18:55:00,60.0,57.4,30.05,WNW,301,0.0,0.0,91,0.00,,,0.00,Wunderground v.1.15,2013-01-13 23:55:00,
2013-01-13 19:00:00,59.9,57.3,30.06,WNW,301,0.0,0.0,91,0.00,,,0.00,Wunderground v.1.15,2013-01-14 00:00:00,
2013-01-13 19:10:00,59.7,57.4,30.06,WNW,301,0.0,0.0,92,0.00,,,0.00,Wunderground v.1.15,2013-01-14 00:10:00,
2013-01-13 19:15:00,59.5,57.2,30.05,WNW,301,0.0,0.0,92,0.00,,,0.00,Wunderground v.1.15,2013-01-14 00:15:00,
2013-01-13 19:25:00,59.4,57.1,30.05,WNW,301,0.0,0.0,92,0.00,,,0.00,Wunderground v.1.15,2013-01-14 00:25:00,
2013-01-13 19:30:00,59.3,57.3,30.05,WNW,301,0.0,0.0,93,0.00,,,0.00,Wunderground v.1.15,2013-01-14 00:30:00,
2013-01-13 19:35:00,59.3,57.3,30.05,WNW,301,0.0,0.0,93,0.00,,,0.00,Wunderground v.1.15,2013-01-14 00:35:00,
2013-01-13 19:40:00,59.3,57.3,30.05,WNW,301,0.0,1.0,93,0.00,,,0.00,Wunderground v.1.15,2013-01-14 00:40:00,
2013-01-13 19:50:00,59.5,57.5,30.05,WNW,301,0.0,0.0,93,0.00,,,0.00,Wunderground v.1.15,2013-01-14 00:50:00,
2013-01-13 19:55:00,59.6,57.6,30.05,WNW,301,0.0,0.0,93,0.00,,,0.00,Wunderground v.1.15,2013-01-14 00:55:00,
2013-01-13 20:00:00,59.6,57.6,30.05,WNW,301,0.0,0.0,93,0.00,,,0.00,Wunderground v.1.15,2013-01-14 01:00:00,
2013-01-13 20:10:00,59.5,57.8,30.05,WNW,301,0.0,0.0,94,0.00,,,0.00,Wunderground v.1.15,2013-01-14 01:10:00,
2013-01-13 20:15:00,59.4,57.7,30.05,WNW,301,0.0,0.0,94,0.00,,,0.00,Wunderground v.1.15,2013-01-14 01:15:00,
2013-01-13 20:25:00,59.0,57.3,30.05,WNW,301,0.0,0.0,94,0.00,,,0.00,Wunderground v.1.15,2013-01-14 01:25:00,
2013-01-13 20:30:00,58.8,57.1,30.05,WNW,301,0.0,0.0,94,0.00,,,0.00,Wunderground v.1.15,2013-01-14 01:30:00,
2013-01-13 20:35:00,58.7,57.0,30.05,WNW,301,0.0,0.0,94,0.00,,,0.00,Wunderground v.1.15,2013-01-14 01:35:00,
2013-01-13 20:45:00,58.4,57.0,30.05,WNW,301,0.0,0.0,95,0.00,,,0.00,Wunderground v.1.15,2013-01-14 01:45:00,
2013-01-13 20:50:00,58.1,56.4,30.04,WNW,301,0.0,0.0,94,0.00,,,0.00,Wunderground v.1.15,2013-01-14 01:50:00,
2013-01-13 20:55:00,58.0,56.6,30.05,WNW,301,0.0,0.0,95,0.00,,,0.00,Wunderground v.1.15,2013-01-14 01:55:00,
2013-01-13 21:05:00,58.0,56.9,30.05,WNW,301,0.0,0.0,96,0.00,,,0.00,Wunderground v.1.15,2013-01-14 02:05:00,
2013-01-13 21:10:00,58.0,56.9,30.05,WNW,301,0.0,0.0,96,0.00,,,0.00,Wunderground v.1.15,2013-01-14 02:10:00,
2013-01-13 21:15:00,57.7,56.3,30.04,WNW,301,0.0,0.0,95,0.00,,,0.00,Wunderground v.1.15,2013-01-14 02:15:00,
2013-01-13 21:25:00,58.0,56.9,30.05,WNW,301,0.0,0.0,96,0.00,,,0.00,Wunderground v.1.15,2013-01-14 02:25:00,
2013-01-13 21:30:00,58.1,57.0,30.05,WNW,293,0.0,0.0,96,0.00,,,0.00,Wunderground v.1.15,2013-01-14 02:30:00,
2013-01-13 21:40:00,58.3,57.2,30.05,WNW,294,0.0,0.0,96,0.00,,,0.00,Wunderground v.1.15,2013-01-14 02:40:00,
2013-01-13 21:45:00,58.4,57.3,30.05,WNW,294,0.0,0.0,96,0.00,,,0.00,Wunderground v.1.15,2013-01-14 02:45:00,
2013-01-13 21:55:00,58.5,57.4,30.06,WNW,294,0.0,0.0,96,0.00,,,0.00,Wunderground v.1.15,2013-01-14 02:55:00,
2013-01-13 22:00:00,58.5,57.4,30.06,WNW,294,0.0,0.0,96,0.00,,,0.00,Wunderground v.1.15,2013-01-14 03:00:00,
2013-01-13 22:10:00,58.5,57.4,30.06,WNW,294,0.0,0.0,96,0.00,,,0.00,Wunderground v.1.15,2013-01-14 03:10:00,
2013-01-13 22:15:00,58.7,57.6,30.06,WNW,294,0.0,0.0,96,0.00,,,0.00,Wunderground v.1.15,2013-01-14 03:15:00,
2013-01-13 22:25:00,58.6,57.5,30.06,WNW,294,0.0,0.0,96,0.00,,,0.00,Wunderground v.1.15,2013-01-14 03:25:00,
2013-01-13 22:30:00,58.6,57.5,30.06,WNW,294,0.0,0.0,96,0.00,,,0.00,Wunderground v.1.15,2013-01-14 03:30:00,
2013-01-13 22:35:00,58.6,57.5,30.06,WNW,294,0.0,0.0,96,0.00,,,0.00,Wunderground v.1.15,2013-01-14 03:35:00,
2013-01-13 22:40:00,58.5,57.4,30.06,WNW,290,0.0,0.0,96,0.00,,,0.00,Wunderground v.1.15,2013-01-14 03:40:00,
2013-01-13 22:45:00,58.4,57.3,30.06,WNW,290,0.0,0.0,96,0.00,,,0.00,Wunderground v.1.15,2013-01-14 03:45:00,
2013-01-13 22:55:00,58.4,57.3,30.06,WNW,291,0.0,0.0,96,0.00,,,0.00,Wunderground v.1.15,2013-01-14 03:55:00,
2013-01-13 23:00:00,58.7,57.9,30.06,WNW,291,0.0,0.0,97,0.00,,,0.00,Wunderground v.1.15,2013-01-14 04:00:00,
2013-01-13 23:10:00,58.7,57.6,30.07,WNW,290,0.0,0.0,96,0.00,,,0.00,Wunderground v.1.15,2013-01-14 04:10:00,
2013-01-13 23:15:00,58.7,57.6,30.06,WNW,290,0.0,0.0,96,0.00,,,0.00,Wunderground v.1.15,2013-01-14 04:15:00,
2013-01-13 23:25:00,59.2,58.3,30.06,NE,41,0.0,1.0,97,0.00,,,0.00,Wunderground v.1.15,2013-01-14 04:25:00,
2013-01-13 23:30:00,59.7,58.8,30.05,ENE,72,0.0,0.0,97,0.00,,,0.00,Wunderground v.1.15,2013-01-14 04:30:00,
2013-01-13 23:40:00,60.7,59.6,30.06,SSE,161,0.0,0.0,96,0.00,,,0.00,Wunderground v.1.15,2013-01-14 04:40:00,
2013-01-13 23:45:00,60.9,59.5,30.06,SSW,201,0.0,0.0,95,0.00,,,0.00,Wunderground v.1.15,2013-01-14 04:45:00,
2013-01-13 23:50:00,61.1,59.7,30.06,South,184,0.0,0.0,95,0.00,,,0.00,Wunderground v.1.15,2013-01-14 04:50:00,